YAOGAN 28 (41026 NORAD) Tracking and Keplerian Element Data

This shows tracking and keplerian element data for the satellite.

Feedback or suggestion? Click here.




ElementValue
Catalog41026
NameYAOGAN 28
Epoch Orbit19198
Epoch Day106.84770571
Epoch Year2019
RAAN238.0134
Inclination97.396
Eccentricity0.0002445
Argument of Perigee136.1037
Mean Anonmoly342.2335
Mean Motion15.23605527
Decay Rate1.003E-05
L11 41026U 15064A 19106.84770571 .00001003 00000-0 44828-4 0 9999
L22 41026 97.3960 238.0134 0002445 136.1037 342.2335 15.23605527191982

Live tracking and technical data element details for YAOGAN 28 (NORAD 41026). YAOGAN 28 can be tracked NOW for your location showing map with azimuth and elevation plus other details from your city location.

Track the satellite on the map from your city or location and see movement details for azimuth, elevation, latitude, longitude, range, height, and movement on the map or in text.







IsCatalogInMostPopularTable: catalog: 41026, numindb: 189
Update: records affected: 1



GetName: 41026 YAOGAN 28

Hit Count: updated at: Sat, 20 Apr 2019 00:44:45 GMT